www.pogodaiklimat.ru

Погода и климат >> Архив погоды >> Россия >> Приморский край >> Терней


АРХИВ ПОГОДЫ в Тернее

Время (UTC), дата Ветер
(напр.,м/с)
 
Видим.   Явления Облачность Т
(С)
Тd
(С)
f
(%)
Тe
(С)
Тes
(С)
Комфортность P
(гПа)
Po
(гПа)
Тmin
(С)
Tmax
(С)
R
(мм)
R24
(мм)
S
(см)
09 12.08 В 1 20 км в посл. час ливневой дождь 10/10 200 м
[St]
+16.1 +15.4 96 +17 +17 1006.0 998.8 +17.2 7
12 12.08 штиль 0 20 км {ливн. осадки} 10/10 200 м
[St]
+15.8 +15.2 96 +16 +16 1007.4 1000.1
15 12.08 штиль 0 1000 м дымка 10/10 100 м
[St]
+15.4 +14.7 96 +15 +15 1008.3 1001.0
18 12.08 штиль 0 20 км 10/10 200 м
[St]
+15.1 +14.7 97 +15 +15 1009.3 1002.0
21 12.08 ЮЗ 1 50 км 10/10 300 м
[St]
+14.7 +14.2 97 +15 +15 1011.4 1004.1 +14.2
00 13.08 В 1 50 км 10/10 300 м
[St]
+17.2 +15.5 90 +18 +18 1012.6 1005.3
03 13.08 ЮВ 1 50 км 10/10 300 м
[St]
+18.0 +15.0 83 +19 +19 1012.6 1005.3
06 13.08 ЮВ 1 50 км 6/3 600 м
[Sc Ac As Ci fib]
+19.7 +14.6 72 +23 +29 комфорт 1012.7 1005.5
09 13.08 Ю 1 50 км 8/0
[Ci fib]
+16.8 +14.4 86 +18 +18 1012.1 1004.9 +20.0
12 13.08 З 1 20 км 8/0
[Ci fib]
+14.4 +13.4 94 +15 +15 1013.4 1006.1
15 13.08 СЗ 1 20 км 8/0
[Ci fib]
+14.0 +13.2 95 +14 +14 1012.5 1005.1
18 13.08 СЗ 1 20 км 8/0
[Ci fib]
+14.1 +13.4 96 +14 +14 1011.7 1004.4
21 13.08 штиль 0 50 км 8/0
[Ac As Ci fib]
+15.2 +14.5 96 +15 +15 1011.6 1004.2 +13.6
00 14.08 штиль 0 20 км слаб. ливневой дождь 10/10 300 м
[Cb cap]
+17.1 +15.1 88 +17 +17 1011.4 1004.1
03 14.08 ЮВ 1 50 км {ливн. осадки} 10/8 600 м
[Sc As op]
+18.3 +14.6 79 +20 +21 1010.5 1003.3
06 14.08 ЮВ 1 50 км {ливн. осадки} 10/4 600 м
[Sc As op]
+18.3 +14.2 77 +20 +21 1009.6 1002.4
09 14.08 штиль 0 50 км 10/1 600 м
[Sc Ac As]
+17.6 +14.1 80 +18 +18 1009.4 1002.1 +19.8 0.0
12 14.08 штиль 0 20 км 10/10 600 м
[Sc]
+17.0 +14.0 82 +17 +17 1009.9 1002.7
15 14.08 СЗ 1 20 км 10/0
[Ac und]
+16.2 +14.7 91 +17 +17 1009.2 1001.9
18 14.08 СЗ 1 20 км 10/0
[Ac und]
+16.2 +15.0 93 +17 +17 1008.7 1001.4
21 14.08 штиль 0 50 км 10/0
[Ac und]
+16.1 +15.0 93 +16 +16 1008.6 1001.3 +15.8
00 15.08 СЗ 1 50 км 10/10 600 м
[Sc]
+19.2 +15.8 81 +22 +22 комфорт 1007.5 1000.3
03 15.08 ЮВ 1 50 км 10/10 300 м
[St]
+19.9 +17.0 83 +24 +24 комфорт 1006.3 999.1
06 15.08 В 1 50 км 10/10 300 м
[St]
+20.3 +17.5 84 +25 +25 комфорт 1005.5 998.4
09 15.08 ЮВ 1 50 км 10/10 300 м
[St]
+18.7 +17.5 93 +21 +21 комфорт 1005.6 998.4 +21.7
12 15.08 СВ 2 10 км слаб. морось 10/10 200 м
[St]
+18.1 +17.4 96 +19 +19 1005.4 998.2
15 15.08 В 3
{12}
10 км слаб. морось 10/10 300 м
[St]
+17.4 +16.4 94 +17 +17 1004.1 996.9
18 15.08 В 2
{12}
10 км слаб. морось 10/10 200 м
[St]
+17.0 +15.8 93 +17 +17 1002.2 995.0
21 15.08 В 2-11
{11}
20 км слаб. ливневой дождь {морось} 10/10 300 м
[Cb cap]
+17.3 +15.8 91 +18 +18 1000.9 993.7 +17.0 3
00 16.08 Ю 1
{11}
20 км слаб. морось 10/10 300 м
[St]
+18.0 +15.7 86 +19 +19 999.6 992.4
03 16.08 В 3
{10}
20 км слаб. морось 10/10 300 м
[St]
+17.9 +15.9 88 +18 +18 997.7 990.6
06 16.08 ЮВ 1 10 км слаб. ливневой дождь {морось} 10/10 300 м
[Cb cap]
+17.9 +16.3 90 +19 +19 995.3 988.1
09 16.08 В 1
{10}
10 км слаб. ливневой дождь 10/10 300 м
[Cb cap]
+18.6 +16.6 88 +21 +21 комфорт 993.9 986.8 +18.8 3
12 16.08 СВ 3-10
{11}
20 км {ливн. осадки} 10/10 600 м
[Cb cap]
+18.9 +16.3 85 +20 +20 993.9 986.8
15 16.08 СВ 2
{13}
10 км слаб. ливневой дождь 10/10 300 м
[Cb cap]
+17.9 +15.2 84 +18 +18 993.6 986.5
18 16.08 Ю 1 10 км слаб. ливневой дождь 10/10 300 м
[Cb cap]
+16.3 +15.0 92 +17 +17 993.9 986.7
21 16.08 СЗ 1 4000 м ливневой дождь 10/10 300 м
[Cb cap]
+16.0 +15.2 95 +17 +17 996.4 989.2 +16.0 6
00 17.08 СЗ 2 50 км {ливн. осадки} 10/10 300 м
[St]
+19.3 +17.0 87 +22 +22 комфорт 997.0 989.9
03 17.08 ЮВ 1 50 км 8/8 300 м
[St]
+19.8 +14.8 73 +23 +27 комфорт 998.3 991.1
06 17.08 В 2 50 км 9/9 300 м
[St]
+18.7 +14.4 76 +20 +21 999.8 992.7
09 17.08 В 2 50 км 10/10 300 м
[St]
+15.6 +13.3 86 +15 +15 1002.3 995.0 +22.2 2
12 17.08 В 1 20 км 10/10 300 м
[St]
+14.9 +12.6 86 +15 +15 1005.0 997.7
15 17.08 ЮВ 1 20 км 10/10 300 м
[St]
+14.5 +12.0 85 +15 +15 1006.6 999.3
18 17.08 В 1 20 км 10/10 300 м
[St]
+14.2 +12.2 88 +15 +15 1007.8 1000.5
21 17.08 Ю 1 50 км {ливн. осадки} 10/10 300 м
[St]
+13.9 +12.5 91 +14 +14 1009.2 1001.8 +13.8 0.0
00 18.08 ЮЗ 1 50 км {ливн. осадки} 10/10 600 м
[Sc]
+14.9 +12.5 86 +15 +15 1010.7 1003.4
03 18.08 ЮВ 1 50 км 10/8 600 м
[Sc As op]
+16.3 +12.6 79 +17 +18 1011.0 1003.7
06 18.08 ЮВ 1 50 км 10/4 600 м
[Sc Ac As]
+16.5 +12.6 78 +17 +19 1010.7 1003.4
09 18.08 штиль 0 50 км 10/6 600 м
[Sc Ac As]
+14.7 +12.3 86 +14 +14 1011.7 1004.3 +16.9
12 18.08 В 1 20 км 10/10 300 м
[St]
+14.2 +12.0 87 +15 +15 1012.6 1005.3
15 18.08 З 1 4000 м ливневой дождь 10/10 200 м
[Cb cap]
+13.0 +12.4 96 +13 +13 1013.4 1006.0
18 18.08 штиль 0 10 км слаб. ливневой дождь 10/10 300 м
[Cb cap]
+13.1 +12.6 97 +13 +13 1014.1 1006.7
21 18.08 З 1 50 км в посл. час ливневой дождь 10/6 600 м
[Sc Ac As]
+13.2 +12.7 97 +13 +13 1015.0 1007.6 +12.9 16
00 19.08 штиль 0 50 км {ливн. осадки} 10/10 600 м
[Sc]
+14.9 +14.0 94 +15 +15 1015.4 1008.0
03 19.08 штиль 0 50 км 10/10 300 м
[St]
+17.1 +14.7 86 +17 +17 1015.3 1008.0
06 19.08 В 1 50 км 10/10 300 м
[St]
+17.0 +14.9 87 +18 +18 1014.9 1007.6

 

Местоположение метеостанции Терней (Приморский край, Россия): широта 45.00 долгота 136.60 высота над уровнем моря 62 м.

В архиве по умолчанию представлена погода в Тернее за последнюю неделю. Архивные данные за месяц целиком и за предыдущие месяцы, начиная с января 2011 года, Вы можете получить, выбрав интересующий диапазон дат из раскрывающегося списка и нажав кнопку "Ввод!".


*Определитесь, кто Вы:
робот инопланетянин человек

Внимание! Время в таблицах - всемирное. Для получения местного времени необходимо прибавить поправку, которая равна 10 ч.

Смотрите также архив погоды в соседних городах и на ближайших метеорологических станциях:

Погода в Малой Кеме (Приморский край, Россия) (59 км)
Погода в Рудной Пристани (Приморский край, Россия) (94 км)
Погода в Мельничном (Приморский край, Россия) (100 км)
Погода в Богополе (Приморский край, Россия) (126 км)
Погода в Кавалерово (Приморский край, Россия) (152 км)
Погода в Глубинном (Приморский край, Россия) (156 км)
Погода в Ольге (Приморский край, Россия) (173 км)
Погода в Дальнегорске (Приморский край, Россия) (181 км)
Погода в Малиново (Приморский край, Россия) (194 км)
Погода в Красном Яре (Приморский край, Россия) (198 км)

Пояснения к столбцам:

Ветер - указаны скорость ветра в м/с - средняя за 10 мин, порывы в срок и между сроками (в фигурных скобках) и направление, откуда дует ветер: С - северный, СВ - северо-восточный, В - восточный, ЮВ - юго-восточный, Ю - южный, ЮЗ - юго-западный, З - западный, СЗ - северо-западный.
Видимость - горизонтальная дальность видимости в метрах или километрах. При видимости от 1 до 10 км при отсутствии осадков обычно наблюдается дымка, при ухудшении видимости до 1 км и менее - туман. В сухую погоду видимость может ухудшаться дымом, пылью или мглою.
Явления - указаны атмосферные явления, наблюдавшиеся в срок или в последний час перед сроком; фигурными скобками обозначены явления, наблюдавшиеся между сроками (за 1-3 часа до срока); квадратными скобками обозначены град или гололедные отложения с указанием их диаметра в мм.
Облачность - указаны через наклонную черту общая и нижняя облачность в баллах и высота нижней границы облаков в метрах; квадратными скобками обозначены формы облаков: Ci - перистые, Cs - перисто-слоистые, Cc - перисто-кучевые, Ac - высококучевые, As - высокослоистые, Sc - слоисто-кучевые, Ns - слоисто-дождевые, Cu - кучевые, Cb - кучево-дождевые. Подробнее классификацию облаков см. в Атласе облаков (PDF).
T - Температура воздуха - температура, измеренная на высоте 2 м над землей.
Td - Температура точки росы - температура, при понижении до которой содержащийся в воздухе водяной пар достигнет насыщения.
f - Относительная влажность воздуха - влажноcть воздуха, измеренная на высоте 2 м над землей.
Te - Эффективная температура - температура, которую ощущает одетый по сезону человек в тени. Характеристика душности погоды. При расчете учитывается влияние влажности воздуха и скорости ветра на теплоощущения человека.
Tes - Эффективная температура на солнце - температура, которую ощущает человек, с поправкой на солнечный нагрев. Характеристика знойности погоды. Зависит от высоты солнца над горизонтом, облачности и скорости ветра. Ночью, в пасмурную погоду, а также при ветре 12 м/с и более поправка равна нулю.
P - Атмосферное давление - приведенное к уровню моря атмосферное давление.
Po - Атмосферное давление - измеренное на уровне метеостанции атмосферное давление.
Tmin - Минимальная температура - минимум температуры воздуха на высоте 2 м над землей.
Tmax - Максимальная температура - максимум температуры воздуха на высоте 2 м над землей.
R - Количество осадков - Количество выпавших осадков за период времени, мм. При наведении курсора мыши на число - период времени, за который выпало указанное количество осадков.
R24 - Количество осадков - Количество выпавших осадков за 24 часа, мм.
S - Снежный покров - Высота снежного покрова, см. При наведении курсора мыши на число - состояние снежного покрова и степень покрытия местности в баллах.